Location: Follega
(52.8850°N, 5.7362°E)
Time: 22:41:31
(UTC+00:00)

ERS-1 Rocket - Pass Details

Date: 02 October 2020
Orbit: 753 x 757 km, 98.5° (Epoch: 24 October)

Event Time Altitude Azimuth Distance (km) Brightness Sun altitude
Exits shadow 21:38:00 28° 322° (NW) 1,395 4.8 -36.3°
Drops below altitude 10° 21:40:32 10° 337° (NNW) 2,299 6.2 -36.5°
Sets 21:42:55 0° 342° (NNW) 3,229 7.1 -36.7°
